Clarksdale Fletcher Field Air, MS

2:46 AM CST on December 15, 2019 (GMT -0600)
Fletcher

Weather History for KCKM - November, 2019

Change the Weather History Date:

Tuesday, November 12, 2019

  Actual Average (KUOX) Record (KUOX)
Temperature  
Mean Temperature 28 °F -  
Max Temperature 32 °F 61 °F 81 °F (1989)
Min Temperature 21 °F 37 °F 21 °F (1950)
Degree Days  
Heating Degree Days 38    
Moisture  
Dew Point 18 °F    
Average Humidity 69    
Maximum Humidity 87    
Minimum Humidity 51    
Precipitation  
Precipitation 0.00 in - - ()
Sea Level Pressure  
Sea Level Pressure 30.50 in    
Wind  
Wind Speed 19 mph ()    
Max Wind Speed 30 mph    
Max Gust Speed 38 mph    
Visibility 10.0 miles    
Events      
Averages and records for this station are not official NWS values.
T = Trace of Precipitation, MM = Missing Value Source: Averaged Metar Reports

Daily Weather History Graph

Daily Weather History Graph

Search for Another Location

Airport or City:

Astronomy

Nov. 12, 2019 Rise Set
Actual Time 6:32 AM CST 4:59 PM CST
Civil Twilight 6:05 AM CST 5:26 PM CST
Nautical Twilight 5:35 AM CST 5:56 PM CST
Astronomical Twilight 5:05 AM CST 6:26 PM CST
Moon 5:25 PM CST (11/12) 6:25 AM CST (11/12)
Length of Visible Light 11h 20m
Length of Day
10h 27m
Full, 100% of the Moon is Illuminated
Nov 12
Full
Nov 19
Last Quarter
Nov 26
New
Dec 4
First Quarter
Dec 11
Full

Hourly Weather History & Observations

Time (CST) Temp. Windchill Dew Point Humidity Pressure Visibility Wind Dir Wind Speed Gust Speed Precip Events Conditions
12:15 AM 32.0 °F 17.9 °F 28.4 °F 87% 30.36 in 10.0 mi North 28.8 mph 38.0 mph N/A   Unknown
12:35 AM 32.0 °F 19.2 °F 28.4 °F 87% 30.38 in 10.0 mi North 23.0 mph 34.5 mph N/A   Unknown
12:55 AM 32.0 °F 19.5 °F 28.4 °F 87% 30.38 in - NNW 21.9 mph 33.4 mph N/A   Unknown
1:35 AM 32.0 °F 18.9 °F 28.4 °F 87% 30.38 in 10.0 mi North 24.2 mph 33.4 mph N/A   Unknown
1:55 AM 32.0 °F 19.8 °F 26.6 °F 80% 30.39 in 10.0 mi North 20.7 mph 33.4 mph N/A   Unknown
2:15 AM 30.2 °F 16.2 °F 26.6 °F 86% 30.40 in 10.0 mi North 25.3 mph 35.7 mph N/A   Unknown
2:35 AM 30.2 °F 16.2 °F 24.8 °F 80% 30.41 in 10.0 mi North 25.3 mph 32.2 mph N/A   Unknown
2:55 AM 30.2 °F 16.5 °F 24.8 °F 80% 30.42 in 10.0 mi NNW 24.2 mph 29.9 mph N/A   Unknown
3:15 AM 30.2 °F 17.4 °F 23.0 °F 75% 30.43 in 10.0 mi NNW 20.7 mph 27.6 mph N/A   Unknown
3:35 AM 28.4 °F 15.4 °F 23.0 °F 80% 30.43 in 10.0 mi North 19.6 mph 33.4 mph N/A   Unknown
3:55 AM 28.4 °F 15.4 °F 23.0 °F 80% 30.45 in 10.0 mi NNW 19.6 mph 29.9 mph N/A   Unknown
4:15 AM 28.4 °F 14.4 °F 21.2 °F 74% 30.45 in 10.0 mi NNW 23.0 mph 33.4 mph N/A   Unknown
4:35 AM 28.4 °F 15.4 °F 21.2 °F 74% 30.47 in 10.0 mi North 19.6 mph 31.1 mph N/A   Unknown
4:55 AM 26.6 °F 11.1 °F 19.4 °F 74% 30.47 in 10.0 mi North 26.5 mph - N/A   Unknown
5:15 AM 24.8 °F 9.0 °F 15.8 °F 69% 30.48 in 10.0 mi North 25.3 mph 36.8 mph N/A   Unknown
5:35 AM 24.8 °F 10.0 °F 17.6 °F 74% 30.49 in 10.0 mi North 21.9 mph 29.9 mph N/A   Unknown
5:55 AM 24.8 °F 7.9 °F 17.6 °F 74% 30.50 in 10.0 mi North 29.9 mph - N/A   Unknown
6:15 AM 24.8 °F 9.0 °F 17.6 °F 74% 30.50 in 10.0 mi North 25.3 mph 32.2 mph N/A   Unknown
6:35 AM 24.8 °F 8.1 °F 15.8 °F 69% 30.51 in 10.0 mi North 28.8 mph 34.5 mph N/A   Unknown
6:55 AM 23.0 °F 8.0 °F 15.8 °F 74% 30.52 in 10.0 mi North 20.7 mph 29.9 mph N/A   Unknown
7:15 AM 23.0 °F 8.0 °F 15.8 °F 74% 30.53 in 10.0 mi North 20.7 mph 26.5 mph N/A   Unknown
7:35 AM 24.8 °F 9.6 °F 15.8 °F 69% 30.54 in 10.0 mi North 23.0 mph - N/A   Unknown
8:15 AM 24.8 °F 10.0 °F 15.8 °F 69% 30.56 in 10.0 mi North 21.9 mph 27.6 mph N/A   Unknown
8:35 AM 24.8 °F 10.3 °F 15.8 °F 69% 30.57 in 10.0 mi North 20.7 mph - N/A   Unknown
9:15 AM 26.6 °F 11.7 °F 15.8 °F 64% 30.58 in 10.0 mi North 24.2 mph 29.9 mph N/A   Unknown
9:35 AM 24.8 °F 10.3 °F 15.8 °F 69% 30.59 in 10.0 mi North 20.7 mph 28.8 mph N/A   Unknown
9:55 AM 24.8 °F 10.3 °F 15.8 °F 69% 30.59 in - North 20.7 mph 31.1 mph N/A   Unknown
10:15 AM 26.6 °F 12.0 °F 14.0 °F 59% 30.59 in 10.0 mi North 23.0 mph - N/A   Unknown
10:35 AM 26.6 °F 12.4 °F 14.0 °F 59% 30.60 in 10.0 mi North 21.9 mph 29.9 mph N/A   Unknown
10:55 AM 28.4 °F 15.1 °F 15.8 °F 59% 30.59 in 10.0 mi North 20.7 mph 28.8 mph N/A   Unknown
11:15 AM 28.4 °F 14.7 °F 15.8 °F 59% 30.58 in 10.0 mi North 21.9 mph 28.8 mph N/A   Unknown
11:35 AM 28.4 °F 15.4 °F 14.0 °F 55% 30.56 in 10.0 mi North 19.6 mph 28.8 mph N/A   Unknown
11:55 AM 28.4 °F 14.4 °F 14.0 °F 55% 30.56 in 10.0 mi North 23.0 mph 31.1 mph N/A   Unknown
12:15 PM 28.4 °F 14.7 °F 14.0 °F 55% 30.55 in 10.0 mi North 21.9 mph - N/A   Unknown
12:35 PM 30.2 °F 17.8 °F 14.0 °F 51% 30.53 in 10.0 mi North 19.6 mph 26.5 mph N/A   Unknown
12:55 PM 30.2 °F 17.1 °F 14.0 °F 51% 30.52 in 10.0 mi North 21.9 mph 29.9 mph N/A   Unknown
1:15 PM 30.2 °F 18.5 °F 15.8 °F 55% 30.52 in 10.0 mi North 17.3 mph 25.3 mph N/A   Unknown
1:35 PM 30.2 °F 18.1 °F 15.8 °F 55% 30.51 in 10.0 mi North 18.4 mph 25.3 mph N/A   Unknown
2:15 PM 30.2 °F 18.5 °F 15.8 °F 55% 30.51 in 10.0 mi North 17.3 mph 24.2 mph N/A   Unknown
2:35 PM 30.2 °F 17.8 °F 15.8 °F 55% 30.49 in 10.0 mi North 19.6 mph 25.3 mph N/A   Unknown
2:55 PM 30.2 °F 18.5 °F 15.8 °F 55% 30.48 in 10.0 mi North 17.3 mph 23.0 mph N/A   Unknown
3:35 PM 30.2 °F 18.9 °F 15.8 °F 55% 30.48 in 10.0 mi North 16.1 mph - N/A   Unknown
3:55 PM 30.2 °F 18.5 °F 15.8 °F 55% 30.48 in 10.0 mi North 17.3 mph 25.3 mph N/A   Unknown
4:15 PM 28.4 °F 15.8 °F 15.8 °F 59% 30.48 in 10.0 mi North 18.4 mph - N/A   Unknown
4:35 PM 28.4 °F 16.6 °F 15.8 °F 59% 30.49 in 10.0 mi North 16.1 mph 23.0 mph N/A   Unknown
4:55 PM 26.6 °F 14.7 °F 14.0 °F 59% 30.49 in 10.0 mi North 15.0 mph - N/A   Unknown
5:15 PM 26.6 °F 15.7 °F 14.0 °F 59% 30.49 in 10.0 mi North 12.7 mph 19.6 mph N/A   Unknown
5:35 PM 26.6 °F 16.2 °F 15.8 °F 64% 30.50 in 10.0 mi North 11.5 mph 17.3 mph N/A   Unknown
5:55 PM 26.6 °F 15.7 °F 15.8 °F 64% 30.50 in 10.0 mi North 12.7 mph - N/A   Unknown
6:15 PM 24.8 °F 16.1 °F 17.6 °F 74% 30.50 in 10.0 mi North 8.1 mph 15.0 mph N/A   Unknown
6:35 PM 24.8 °F 12.4 °F 15.8 °F 69% 30.51 in 10.0 mi North 15.0 mph - N/A   Unknown
6:55 PM 24.8 °F 11.9 °F 15.8 °F 69% 30.51 in 10.0 mi North 16.1 mph - N/A   Unknown
7:15 PM 24.8 °F 12.9 °F 15.8 °F 69% 30.51 in 10.0 mi North 13.8 mph 20.7 mph N/A   Unknown
7:35 PM 24.8 °F 14.0 °F 17.6 °F 74% 30.52 in 10.0 mi North 11.5 mph 18.4 mph N/A   Unknown
7:55 PM 24.8 °F 14.0 °F 17.6 °F 74% 30.51 in 10.0 mi NNE 11.5 mph - N/A   Unknown
8:15 PM 24.8 °F 14.0 °F 17.6 °F 74% 30.51 in 10.0 mi North 11.5 mph - N/A   Unknown
8:35 PM 24.8 °F 12.9 °F 15.8 °F 69% 30.51 in 10.0 mi North 13.8 mph 19.6 mph N/A   Unknown
9:15 PM 24.8 °F 14.0 °F 17.6 °F 74% 30.51 in 10.0 mi North 11.5 mph - N/A   Unknown
9:35 PM 24.8 °F 14.6 °F 17.6 °F 74% 30.51 in 10.0 mi NNE 10.4 mph - N/A   Unknown
9:55 PM 23.0 °F 12.4 °F 17.6 °F 80% 30.50 in 10.0 mi NNE 10.4 mph - N/A   Unknown
10:15 PM 23.0 °F 13.1 °F 15.8 °F 74% 30.50 in 10.0 mi NNE 9.2 mph 17.3 mph N/A   Unknown
10:35 PM 23.0 °F 13.1 °F 15.8 °F 74% 30.49 in 10.0 mi NNE 9.2 mph - N/A   Unknown
10:55 PM 23.0 °F 13.9 °F 15.8 °F 74% 30.49 in 10.0 mi NNE 8.1 mph - N/A   Unknown
11:15 PM 23.0 °F 14.7 °F 15.8 °F 74% 30.48 in - NNE 6.9 mph - N/A   Unknown
11:35 PM 23.0 °F 14.7 °F 15.8 °F 74% 30.47 in 10.0 mi NNE 6.9 mph - N/A   Unknown
11:55 PM 21.2 °F 12.6 °F 15.8 °F 80% 30.47 in 10.0 mi NNE 6.9 mph - N/A   Unknown